Morris, MN

3:15 AM CDT on April 30, 2017 (GMT -0500)
Morris Municipal

Weather History for KMOX - June, 2013

Change the Weather History Date:

Saturday, June 22, 2013

  Actual Average Record
Temperature  
Mean Temperature 70 °F -  
Max Temperature 78 °F 75 °F 89 °F (2002)
Min Temperature 62 °F 55 °F 33 °F (2014)
Cooling Degree Days 5    
Growing Degree Days 20 (Base 50)    
Moisture  
Dew Point 65 °F    
Average Humidity 83    
Maximum Humidity 100    
Minimum Humidity 61    
Precipitation  
Precipitation 0.02 in - - ()
Sea Level Pressure  
Sea Level Pressure 29.88 in    
Wind  
Wind Speed 6 mph (ESE)    
Max Wind Speed 13 mph    
Max Gust Speed -    
Visibility 9 miles    
Events Rain , Thunderstorm    
Averages and records for this station are not official NWS values.
T = Trace of Precipitation, MM = Missing Value Source: NWS Daily Summary

Daily Weather History Graph

Daily Weather History Graph

Search for Another Location

Airport or City:

Trip Planner

Search our weather history database for the weather conditions in past years. The results will help you decide how hot, cold, wet, or windy it might be!

Date:

Astronomy

Jun. 22, 2013 Rise Set
Actual Time 5:35 AM CDT 9:16 PM CDT
Civil Twilight 4:57 AM CDT 9:54 PM CDT
Nautical Twilight 4:05 AM CDT 10:45 PM CDT
Astronomical Twilight 2:56 AM CDT 11:55 PM CDT
Moon 8:29 PM CDT (6/22) 4:52 AM CDT (6/22)
Length of Visible Light 16h 57m
Length of Day
15h 41m
Waxing Gibbous, 99% of the Moon is Illuminated
Jun 22
Waxing Gibbous
Jun 23
Full
Jun 29
Last Quarter
Jul 8
New
Jul 15
First Quarter

Hourly Weather History & Observations

Time (CDT) Temp. Dew Point Humidity Pressure Visibility Wind Dir Wind Speed Gust Speed Precip Events Conditions
12:11 AM 64.4 °F 62.6 °F 94% 29.87 in 4.0 mi North - - N/A   Clear
12:30 AM 64.4 °F 62.6 °F 94% 29.88 in 4.0 mi North - - N/A   Clear
12:51 AM 64.4 °F 62.6 °F 94% 29.90 in 5.0 mi NW 4.6 mph - N/A   Clear
1:10 AM 64.4 °F 62.6 °F 94% 29.90 in 5.0 mi North - - N/A   Clear
1:31 AM 62.6 °F 62.6 °F 100% 29.90 in 4.0 mi North - - N/A   Clear
1:50 AM 64.4 °F 62.6 °F 94% 29.92 in 4.0 mi North - - N/A   Clear
2:11 AM 64.4 °F 62.6 °F 94% 29.91 in 4.0 mi North - - N/A   Clear
2:31 AM 64.4 °F 62.6 °F 94% 29.90 in 4.0 mi North - - N/A Thunderstorm Clear
2:50 AM 64.4 °F 62.6 °F 94% 29.89 in 4.0 mi North - - N/A   Clear
3:11 AM 64.4 °F 62.6 °F 94% 29.89 in 4.0 mi North - - N/A   Clear
3:30 AM 64.4 °F 62.6 °F 94% 29.90 in 4.0 mi North - - N/A   Clear
3:51 AM 64.4 °F 62.6 °F 94% 29.92 in 4.0 mi North - - N/A   Clear
4:11 AM 64.4 °F 62.6 °F 94% 29.92 in 5.0 mi North - - N/A   Clear
4:31 AM 64.4 °F 62.6 °F 94% 29.91 in 7.0 mi North - - N/A   Scattered Clouds
4:50 AM 64.4 °F 62.6 °F 94% 29.88 in 10.0 mi North - - N/A   Clear
5:10 AM 66.2 °F 62.6 °F 88% 29.87 in 10.0 mi North - - N/A   Clear
5:31 AM 66.2 °F 62.6 °F 88% 29.85 in 10.0 mi North - - N/A   Clear
5:50 AM 66.2 °F 62.6 °F 88% 29.83 in 10.0 mi North - - N/A   Clear
6:11 AM 66.2 °F 62.6 °F 88% 29.85 in 10.0 mi North - - N/A   Clear
6:30 AM 64.4 °F 62.6 °F 94% 29.85 in 10.0 mi North - - N/A Rain Light Rain
6:51 AM 64.4 °F 64.4 °F 100% 29.90 in 10.0 mi North - - N/A   Light Drizzle
7:11 AM 66.2 °F 64.4 °F 94% 29.91 in 10.0 mi North - - N/A   Light Drizzle
7:31 AM 66.2 °F 64.4 °F 94% 29.93 in 10.0 mi North - - N/A Rain Light Rain
7:51 AM 66.2 °F 64.4 °F 94% 29.94 in 10.0 mi North - - N/A   Light Drizzle
8:10 AM 66.2 °F 64.4 °F 94% 29.94 in 10.0 mi North - - 0.01 in Rain Light Rain
8:28 AM 66.2 °F 64.4 °F 94% 29.93 in 10.0 mi North - - 0.02 in Rain Light Rain
8:51 AM 68.0 °F 66.2 °F 94% 29.92 in 10.0 mi North - - 0.02 in Rain Light Rain
9:10 AM 68.0 °F 66.2 °F 94% 29.92 in 10.0 mi North - - N/A Rain Light Rain
9:31 AM 68.0 °F 64.4 °F 88% 29.91 in 10.0 mi North - - N/A   Clear
9:51 AM 69.8 °F 66.2 °F 88% 29.90 in 10.0 mi North - - N/A   Clear
10:11 AM 69.8 °F 66.2 °F 88% 29.92 in 10.0 mi North - - N/A   Clear
10:31 AM 69.8 °F 66.2 °F 88% 29.91 in 10.0 mi North - - N/A Rain Light Rain
10:50 AM 71.6 °F 64.4 °F 78% 29.91 in 10.0 mi North - - N/A   Clear
11:10 AM 71.6 °F 66.2 °F 83% 29.92 in 10.0 mi North - - N/A   Clear
11:31 AM 71.6 °F 64.4 °F 78% 29.92 in 10.0 mi North - - N/A   Clear
11:51 AM 71.6 °F 64.4 °F 78% 29.93 in 10.0 mi North - - N/A   Scattered Clouds
12:10 PM 71.6 °F 64.4 °F 78% 29.93 in 10.0 mi North - - N/A   Mostly Cloudy
12:30 PM 71.6 °F 64.4 °F 78% 29.92 in 10.0 mi North - - N/A   Mostly Cloudy
12:50 PM 71.6 °F 64.4 °F 78% 29.92 in 10.0 mi North - - N/A   Scattered Clouds
1:11 PM 73.4 °F 64.4 °F 73% 29.93 in 10.0 mi ESE 8.1 mph - N/A   Unknown
1:30 PM 73.4 °F 64.4 °F 73% - 10.0 mi SE 4.6 mph - N/A   Mostly Cloudy
1:51 PM 75.2 °F 64.4 °F 69% 29.92 in 10.0 mi SSE 3.5 mph - N/A   Unknown
2:11 PM 75.2 °F 64.4 °F 69% 29.92 in 10.0 mi North - - N/A   Clear
2:31 PM 77.0 °F 66.2 °F 69% 29.90 in 10.0 mi SSE 8.1 mph - N/A   Clear
2:50 PM 77.0 °F 66.2 °F 69% 29.89 in 10.0 mi SE 9.2 mph - N/A   Clear
3:10 PM 78.8 °F 64.4 °F 61% 29.89 in 10.0 mi Calm Calm - N/A   Clear
3:30 PM 78.8 °F 64.4 °F 61% 29.89 in 10.0 mi SSE 6.9 mph - N/A   Clear
3:51 PM 78.8 °F 64.4 °F 61% 29.89 in 10.0 mi SSE 4.6 mph - N/A   Clear
4:11 PM 78.8 °F 66.2 °F 65% 29.89 in 10.0 mi South 5.8 mph - N/A   Clear
4:30 PM 78.8 °F 66.2 °F 65% 29.88 in 10.0 mi South 8.1 mph - N/A   Scattered Clouds
4:50 PM 78.8 °F 66.2 °F 65% 29.88 in 10.0 mi SSE 6.9 mph - N/A   Scattered Clouds
5:10 PM 78.8 °F 66.2 °F 65% 29.88 in 10.0 mi SSE 4.6 mph - N/A   Scattered Clouds
5:31 PM 78.8 °F 64.4 °F 61% 29.87 in 10.0 mi Calm Calm - N/A   Scattered Clouds
5:50 PM 78.8 °F 66.2 °F 65% 29.86 in 10.0 mi ESE 6.9 mph - N/A   Scattered Clouds
6:10 PM 78.8 °F 66.2 °F 65% 29.86 in 10.0 mi ESE 4.6 mph - N/A   Clear
6:31 PM 78.8 °F 66.2 °F 65% 29.85 in 10.0 mi SE 6.9 mph - N/A   Clear
6:50 PM 77.0 °F 66.2 °F 69% 29.84 in 10.0 mi ESE 6.9 mph - N/A   Scattered Clouds
7:11 PM 75.2 °F 66.2 °F 73% 29.83 in 10.0 mi ESE 6.9 mph - N/A   Clear
7:30 PM 75.2 °F 66.2 °F 73% 29.84 in 10.0 mi ESE 5.8 mph - N/A   Scattered Clouds
7:51 PM 75.2 °F 66.2 °F 73% 29.83 in 10.0 mi ESE 8.1 mph - N/A   Scattered Clouds
8:10 PM 73.4 °F 66.2 °F 78% 29.83 in 10.0 mi ESE 8.1 mph - N/A   Clear
8:30 PM 73.4 °F 68.0 °F 83% 29.82 in 10.0 mi East 8.1 mph - N/A   Clear
8:51 PM 73.4 °F 68.0 °F 83% 29.82 in 10.0 mi East 9.2 mph - N/A   Scattered Clouds
9:10 PM 73.4 °F 68.0 °F 83% 29.82 in 10.0 mi East 9.2 mph - N/A   Scattered Clouds
9:31 PM 71.6 °F 68.0 °F 88% 29.83 in 10.0 mi East 6.9 mph - N/A   Clear
9:48 PM 71.6 °F 68.0 °F 88% 29.83 in 10.0 mi East 6.9 mph - N/A   Clear
10:08 PM 71.6 °F 68.0 °F 88% 29.83 in 10.0 mi East 9.2 mph - N/A   Clear
10:30 PM 71.6 °F 66.2 °F 83% 29.82 in 10.0 mi East 9.2 mph - N/A   Clear
10:50 PM 69.8 °F 68.0 °F 94% 29.81 in 10.0 mi East 11.5 mph - N/A   Clear
11:11 PM 69.8 °F 68.0 °F 94% 29.80 in 10.0 mi East 11.5 mph - N/A   Scattered Clouds
11:30 PM 69.8 °F 66.2 °F 88% 29.79 in 10.0 mi East 11.5 mph - N/A   Clear
11:50 PM 69.8 °F 66.2 °F 88% 29.77 in 10.0 mi ESE 12.7 mph - N/A   Clear